Flag for U.S.A. Weather past 2 weeks in Inverness, Florida, U.S.A.

Now
55 °F

Cool.


Feels Like: 54 °F
Forecast: 47 / 62 °F
Wind: 7 mph from West

Location: The Villages

Current Time: Jan 26, 2015 at 6:09:27 AM

Latest Report: Jan 26, 2015 at 5:35 AM


Visibility: 8 mi

Pressure: 29.74 "Hg

Humidity: 94%

Dew point: 54 °F

Location of InvernessLocation

Historic Weather in Inverness — Graph

°F

Inverness temperature yesterday

Maximum temperature yesterday: 63 °F (at 1:55 PM)
Minimum temperature yesterday: 36 °F (at 6:35 AM)
Average temperature yesterday: 50 °F

Past Weeks' High & Low Weather Summary

 TemperatureHumidityPressure
High79 °F (Jan 23, 1:15 PM)100% (Jan 11, 4:55 AM)30.30 "Hg (Jan 11, 4:55 AM)
Low36 °F (Jan 25, 6:35 AM)24% (Jan 19, 2:15 PM)29.69 "Hg (Jan 24, 3:35 AM)
Average59 °F86%30.02 "Hg
* Reported Jan 11 4:35 AM — Jan 26 4:55 AM, Inverness, Weather by CustomWeather, © 2014

Note: Actual official high and low records may vary slightly from our data, if they occured in-between our weather recording intervals... More about our weather records

Advertising

Inverness weather history for previous 24 hours

 ConditionsComfort  
Time TempWeatherWind HumidityBarometerVisibility
4:55 AM
Jan 26
57 °FFog.9 mph94%29.75 "Hg4 mi
4:35 AM57 °FCool.14 mph94%29.75 "Hg7 mi
4:15 AM55 °FFog.7 mph94%29.74 "Hg2 mi
3:55 AM55 °FFog.3 mph94%29.74 "Hg6 mi
3:35 AM55 °FFog.6 mph88%29.74 "Hg5 mi
3:15 AM55 °FCool.6 mph88%29.76 "Hg9 mi
2:55 AM55 °FCool.7 mph88%29.76 "Hg7 mi
2:35 AM55 °FCool.8 mph88%29.76 "Hg9 mi
2:15 AM55 °FCool.7 mph88%29.77 "Hg7 mi
1:55 AM55 °FFog.7 mph88%29.78 "Hg6 mi
1:35 AM55 °FCool.7 mph88%29.79 "Hg7 mi
1:15 AM54 °FFog.7 mph94%29.80 "Hg6 mi
12:55 AM54 °FFog.8 mph88%29.81 "Hg6 mi
12:35 AM54 °FFog.7 mph88%29.82 "Hg6 mi
12:15 AM54 °FHaze.7 mph88%29.82 "Hg6 mi
11:55 PM
Jan 25
54 °FCool.7 mph82%29.83 "Hg8 mi
11:35 PM54 °FHaze.6 mph82%29.84 "Hg6 mi
11:15 PM54 °FHaze.7 mph82%29.85 "Hg6 mi
10:55 PM54 °FHaze.6 mph82%29.85 "Hg6 mi
10:15 PM54 °FCool.7 mph82%29.87 "Hg9 mi
9:55 PM54 °FCool.6 mph82%29.87 "Hg9 mi
9:15 PM54 °FCool.6 mph77%29.87 "Hg9 mi
8:55 PM52 °FCool.6 mph82%29.88 "Hg9 mi
8:35 PM54 °FCool.3 mph77%29.90 "Hg8 mi
8:15 PM54 °FCool.3 mph77%29.90 "Hg8 mi
7:55 PM54 °FCool.3 mph77%29.91 "Hg9 mi
7:15 PM55 °FCool.3 mph72%29.91 "Hg9 mi
6:55 PM55 °FCool.3 mph67%29.91 "Hg7 mi
6:35 PM55 °FCool.6 mph67%29.90 "Hg10 mi
6:15 PM57 °FCool.6 mph63%29.91 "Hg10 mi
5:55 PM59 °FRefreshingly cool.7 mph59%29.90 "Hg10 mi
5:15 PM61 °FRefreshingly cool.7 mph55%29.89 "Hg9 mi
4:35 PM61 °FHaze.8 mph55%29.87 "Hg6 mi
4:15 PM63 °FHaze.9 mph49%29.87 "Hg6 mi
3:55 PM63 °FMild.6 mph45%29.87 "Hg10 mi
3:35 PM63 °FMild.7 mph42%29.88 "Hg9 mi
3:15 PM63 °FMild.9 mph42%29.89 "Hg8 mi
2:55 PM63 °FMild.6 mph39%29.90 "Hg9 mi
2:35 PM63 °FMild.8 mph37%29.90 "Hg9 mi
2:15 PM63 °FMild.8 mph37%29.91 "Hg9 mi
1:55 PM63 °FMild.7 mph34%29.91 "Hg7 mi
1:35 PM61 °FRefreshingly cool.6 mph36%29.92 "Hg10 mi
1:15 PM61 °FRefreshingly cool.6 mph36%29.92 "Hg9 mi
12:55 PM61 °FRefreshingly cool.6 mph36%29.94 "Hg8 mi
12:35 PM61 °FRefreshingly cool.7 mph36%29.95 "Hg9 mi
12:15 PM59 °FRefreshingly cool.6 mph36%29.97 "Hg9 mi
11:55 AM57 °FRefreshingly cool.6 mph36%29.98 "Hg9 mi
11:35 AM57 °FHaze.3 mph39%29.99 "Hg6 mi
11:15 AM55 °FHaze.5 mph44%30.00 "Hg6 mi
10:55 AM54 °FCool.9 mph47%30.01 "Hg9 mi
10:35 AM54 °FCool.8 mph47%30.01 "Hg9 mi
10:15 AM52 °FCool.6 mph50%30.02 "Hg7 mi
9:55 AM50 °FCool.5 mph58%30.02 "Hg7 mi
9:15 AM48 °FCool.3 mph66%30.03 "Hg9 mi
8:35 AM43 °FQuite cool.No wind93%30.02 "Hg8 mi
8:15 AM39 °FChilly.No wind100%30.01 "Hg8 mi
7:55 AM37 °FFog.No wind100%30.01 "Hg5 mi
7:35 AM37 °FFog.No wind100%30.01 "Hg4 mi
7:15 AM36 °FFog.No wind100%30.01 "Hg6 mi
6:55 AM36 °FChilly.No wind100%30.01 "Hg8 mi
6:35 AM36 °FFog.No wind100%30.01 "Hg6 mi
6:15 AM37 °FChilly.No wind93%30.00 "Hg9 mi
Weather by CustomWeather, © 2014

See weather overviewHow to use our weather pages